Location: Kershaw
(34.5481°N, 80.5823°W)
Time: 04:36:22
(UTC+00:00)

Transit 2A Rocket - Pass Details

Date: 12 October 2022
Orbit: 589 x 911 km, 66.7° (Epoch: 27 November)

Event Time Altitude Azimuth Distance (km) Brightness Sun altitude
Exits shadow 09:12:33 12° 3° (N) 1,795 7.0 -28.1°
Drops below altitude 10° 09:12:56 10° 6° (N) 1,932 7.3 -28.0°
Sets 09:15:25 0° 17° (NNE) 2,858 8.3 -27.5°
